Weather History for KHON - November, 2013

Change the Weather History Date:

Saturday, November 23, 2013

  Actual Average Record
Temperature  
Mean Temperature 9 °F 28 °F  
Max Temperature 18 °F 38 °F 59 °F (1902)
Min Temperature -1 °F 18 °F -19 °F (1985)
Degree Days  
Heating Degree Days 56 37  
Month to date heating degree days 719 699  
Since 1 July heating degree days 1358 1429  
Cooling Degree Days 0 0  
Month to date cooling degree days 0 0  
Year to date cooling degree days 848 742  
Moisture  
Dew Point -1 °F    
Average Humidity 65    
Maximum Humidity 87    
Minimum Humidity 43    
Precipitation  
Precipitation 0.00 in 0.03 in 0.91 in (2001)
Month to date precipitation 0.16 0.72  
Year to date precipitation 24.18 22.23  
Snow  
Snow 0.00 in 0.30 in 2.50 in (2003)
Month to date snowfall 1.6 5.2  
Since 1 July snowfall 2.5 6.3  
Since 1 September snowfall 2.5 6.3  
Snow Depth T in    
Sea Level Pressure  
Sea Level Pressure 30.86 in    
Wind  
Wind Speed 7 mph (SE)    
Max Wind Speed 20 mph    
Max Gust Speed 23 mph    
Visibility 10 miles    
Events      
T = Trace of Precipitation, MM = Missing Value Source: NWS Daily Summary

Daily Weather History Graph

Daily Weather History Graph

Search for Another Location

Airport or City:

Trip Planner

Search our weather history database for the weather conditions in past years. The results will help you decide how hot, cold, wet, or windy it might be!

Date:

Astronomy

Nov. 23, 2013 Rise Set
Actual Time 7:39 AM CST 4:58 PM CST
Civil Twilight 7:07 AM CST 5:30 PM CST
Nautical Twilight 6:31 AM CST 6:06 PM CST
Astronomical Twilight 5:57 AM CST 6:41 PM CST
Moon 10:34 PM CST (11/23) 11:52 AM CST (11/23)
Length of Visible Light 10h 23m
Length of Day
9h 19m
Waning Gibbous, 69% of the Moon is Illuminated
Nov 23
Waning Gibbous
Nov 25
Last Quarter
Dec 2
New
Dec 9
First Quarter
Dec 17
Full

Hourly Weather History & Observations

Time (CST) Temp. Windchill Dew Point Humidity Pressure Visibility Wind Dir Wind Speed Gust Speed Precip Events Conditions
12:55 AM 7.0 °F -8.3 °F 1.0 °F 77% 30.84 in 10.0 mi North 11.5 mph 19.6 mph N/A   Clear
1:55 AM 5.0 °F -10.8 °F -0.0 °F 80% 30.87 in 10.0 mi North 11.5 mph - N/A   Clear
2:55 AM 3.9 °F -10.4 °F -0.9 °F 80% 30.90 in 10.0 mi NNW 9.2 mph - N/A   Clear
3:55 AM 3.0 °F -11.5 °F -2.0 °F 80% 30.92 in 10.0 mi NNW 9.2 mph - N/A   Clear
4:55 AM 1.9 °F -9.2 °F -2.0 °F 83% 30.94 in 10.0 mi NW 5.8 mph - N/A   Clear
5:55 AM 1.0 °F -11.7 °F -2.9 °F 83% 30.97 in 10.0 mi NNW 6.9 mph - N/A   Clear
6:55 AM -0.0 °F -9.9 °F -4.0 °F 83% 30.97 in 10.0 mi NW 4.6 mph - N/A   Clear
7:55 AM -0.0 °F -11.6 °F -5.1 °F 79% 30.99 in 10.0 mi North 5.8 mph - N/A   Clear
8:55 AM 3.0 °F -9.3 °F -2.9 °F 76% 30.99 in 10.0 mi North 6.9 mph - N/A   Clear
9:55 AM 6.1 °F -4.3 °F -0.9 °F 73% 31.00 in 10.0 mi NNE 5.8 mph - N/A   Clear
10:55 AM 9.0 °F 2.4 °F 1.0 °F 70% 30.97 in 10.0 mi ENE 3.5 mph - N/A   Clear
11:55 AM 12.0 °F 5.9 °F -0.0 °F 59% 30.94 in 10.0 mi East 3.5 mph - N/A   Clear
12:55 PM 14.0 °F - -0.9 °F 52% 30.91 in 10.0 mi Calm Calm - N/A   Clear
1:55 PM 16.0 °F 7.4 °F -0.9 °F 47% 30.89 in 10.0 mi SW 5.8 mph - N/A   Clear
2:55 PM 17.1 °F 10.0 °F -2.9 °F 41% 30.86 in 10.0 mi SSW 4.6 mph - N/A   Clear
3:55 PM 18.0 °F 12.7 °F -2.9 °F 40% 30.84 in 10.0 mi SSW 3.5 mph - N/A   Clear
4:55 PM 15.1 °F 7.7 °F -2.0 °F 47% 30.82 in 10.0 mi South 4.6 mph - N/A   Clear
5:55 PM 15.1 °F 4.2 °F -0.9 °F 49% 30.81 in 10.0 mi South 8.1 mph - N/A   Scattered Clouds
6:55 PM 12.9 °F 2.6 °F 1.9 °F 62% 30.79 in 10.0 mi SSE 6.9 mph - N/A   Clear
7:55 PM 12.9 °F 0.7 °F 1.9 °F 62% 30.77 in 10.0 mi South 9.2 mph - N/A   Clear
8:55 PM 12.0 °F -0.4 °F 1.9 °F 64% 30.75 in 10.0 mi SSE 9.2 mph - N/A   Clear
9:55 PM 10.9 °F -1.8 °F 1.9 °F 67% 30.73 in 10.0 mi SSE 9.2 mph - N/A   Clear
10:55 PM 12.0 °F -1.3 °F 1.9 °F 64% 30.69 in 10.0 mi SSE 10.4 mph - N/A   Clear
11:55 PM 12.0 °F -3.4 °F 3.0 °F 67% 30.64 in 10.0 mi SSE 13.8 mph - N/A   Clear